* Astronomy

Members Login
Username 
 
Password 
    Remember Me  
Post Info TOPIC: Asteroid 2012 JR4


L

Posts: 131433
Date:
Asteroid 2012 JR4
Permalink  
 


Orbital elements:
2012 JR4                                                 Earth MOID = 0.1419 AU
Epoch 2012 Mar. 14.0 TT = JDT 2456000.5                 MPC
M   5.97070              (2000.0)            P               Q
n   0.69940767     Peri.  114.04607     -0.95790359     -0.18072743
a   1.2569436      Node    56.26437     +0.03993111     -0.85330886
e   0.1407515      Incl.   15.55920     +0.28429951     -0.48908240
P   1.41           H   24.1           G   0.15           U   8

MPEC 2012 - J47



__________________
Page 1 of 1  sorted by
 
Quick Reply

Please log in to post quick replies.



Create your own FREE Forum
Report Abuse
Powered by ActiveBoard